Date String (YYYY-MM-DD hh:mm:ss) UTC,Instrument flags,Ambient pressure (hPa),Sample flow (lpm),Bypass flow (lpm),Sample temperature (°C),Ambient temperature (°C),ASC tube jacket temperature (°C),LED temperature (°C),Box temperature (°C),Sample RH (%),Span deviation,Mass concentration (μg/m³),Mass concentration (μg/m³),Mass concentration (μg/m³)
DateTimeUTC,F1_M11,P_M11,Q1_M11,Q2_M11,T1_M11,T2_M11,T3_M11,T4_M11,T5_M11,U1_M11,ZSPAN_M11,X0_M11,X2_M11,X1_M11
2021-10-12 00:00:00,,0815.8,5.00,0.00,30.1,29.3,00.0,39.0,32.0,11.2,0000.0,0014.06,0003.87,0002.66
2021-10-12 00:01:00,,0815.7,5.00,0.00,30.1,29.3,00.0,39.0,32.0,11.1,0000.0,0013.91,0003.81,0002.66
2021-10-12 00:02:00,,0815.7,5.01,0.00,30.1,29.2,00.0,39.0,31.9,11.1,0000.0,0013.46,0003.79,0002.66
2021-10-12 00:03:00,,0815.7,5.00,0.00,30.1,27.5,00.0,39.0,31.4,11.2,0000.0,0013.20,0003.80,0002.65
2021-10-12 00:04:00,,0815.8,5.00,0.00,29.9,26.4,00.0,39.0,31.1,11.3,0000.0,0013.21,0003.84,0002.65
2021-10-12 00:05:00,,0815.7,5.00,0.00,29.8,26.5,00.0,38.9,31.1,11.4,0000.0,0013.24,0003.84,0002.64
2021-10-12 00:06:00,,0815.8,5.00,0.00,29.7,26.9,00.0,38.9,31.3,11.4,0000.0,0013.10,0003.81,0002.64
2021-10-12 00:07:00,,0815.8,5.00,0.00,29.7,27.3,00.0,38.9,31.3,11.5,0000.0,0012.59,0003.77,0002.61
2021-10-12 00:08:00,,0815.8,4.98,0.00,29.7,27.7,00.0,38.9,31.4,11.4,0000.0,0013.38,0003.81,0002.61
2021-10-12 00:09:00,,0815.8,5.01,0.00,29.7,27.9,00.0,38.8,31.4,11.5,0000.0,0013.71,0003.87,0002.61
2021-10-12 00:10:00,,0815.8,4.99,0.00,29.7,28.1,00.0,38.8,31.5,11.5,0000.0,0013.46,0003.88,0002.60
2021-10-12 00:11:00,,0815.8,4.99,0.00,29.8,28.3,00.0,38.8,31.5,11.5,0000.0,0015.34,0003.87,0002.57
2021-10-12 00:12:00,,0815.8,5.00,0.00,29.8,28.5,00.0,38.8,31.5,11.5,0000.0,0015.82,0003.91,0002.57
2021-10-12 00:13:00,,0815.8,5.00,0.00,29.8,28.6,00.0,38.8,31.6,11.5,0000.0,0016.07,0003.92,0002.55
2021-10-12 00:14:00,,0815.8,5.00,0.00,29.8,28.7,00.0,38.9,31.6,11.5,0000.0,0016.60,0003.96,0002.54
2021-10-12 00:15:00,,0815.8,5.01,0.00,29.9,28.8,00.0,38.9,31.7,11.5,0000.0,0017.21,0003.96,0002.54
2021-10-12 00:16:00,,0815.8,5.00,0.00,29.9,28.9,00.0,38.9,31.7,11.4,0000.0,0017.22,0003.99,0002.52
2021-10-12 00:17:00,,0815.8,5.00,0.00,29.9,28.9,00.0,38.9,31.7,11.4,0000.0,0018.10,0004.04,0002.50
2021-10-12 00:18:00,,0815.8,5.00,0.00,29.9,29.0,00.0,38.9,31.8,11.4,0000.0,0018.54,0004.09,0002.51
2021-10-12 00:19:00,,0815.8,4.99,0.00,30.0,29.1,00.0,38.9,31.8,11.4,0000.0,0018.07,0004.10,0002.51
2021-10-12 00:20:00,,0815.8,5.00,0.00,30.0,29.1,00.0,39.0,31.8,11.4,0000.0,0017.95,0004.09,0002.51
2021-10-12 00:21:00,,0815.8,4.99,0.00,30.0,29.2,00.0,39.0,31.9,11.3,0000.0,0017.85,0004.07,0002.52
2021-10-12 00:22:00,,0815.8,5.00,0.00,30.1,29.2,00.0,39.0,31.9,11.3,0000.0,0016.53,0004.12,0002.57
2021-10-12 00:23:00,,0815.8,4.99,0.00,30.1,29.3,00.0,39.0,31.9,11.3,0000.0,0017.35,0004.11,0002.57
2021-10-12 00:24:00,,0815.8,5.00,0.00,30.1,29.3,00.0,39.0,31.9,11.3,0000.0,0017.10,0004.10,0002.59
2021-10-12 00:25:00,,0815.9,5.01,0.00,30.1,29.4,00.0,39.1,32.0,11.2,0000.0,0016.52,0004.08,0002.60
2021-10-12 00:26:00,,0815.9,5.01,0.00,30.2,29.3,00.0,39.1,31.9,11.2,0000.0,0015.89,0004.07,0002.62
2021-10-12 00:27:00,,0815.9,5.00,0.00,30.1,27.5,00.0,39.1,31.5,11.2,0000.0,0017.34,0004.10,0002.65
2021-10-12 00:28:00,,0815.9,5.00,0.00,29.9,26.3,00.0,39.0,31.1,11.3,0000.0,0016.76,0004.11,0002.69
2021-10-12 00:29:00,,0815.8,4.99,0.00,29.8,26.5,00.0,39.0,31.1,11.4,0000.0,0016.73,0004.11,0002.70
2021-10-12 00:30:00,,0815.9,5.00,0.00,29.7,26.9,00.0,38.9,31.2,11.5,0000.0,0016.97,0004.10,0002.69
2021-10-12 00:31:00,,0815.9,5.01,0.00,29.7,27.3,00.0,38.9,31.3,11.5,0000.0,0017.19,0004.13,0002.69
2021-10-12 00:32:00,,0815.9,5.00,0.00,29.7,27.7,00.0,38.9,31.4,11.5,0000.0,0017.86,0004.15,0002.68
2021-10-12 00:33:00,,0815.9,5.01,0.00,29.7,28.0,00.0,38.9,31.4,11.4,0000.0,0017.37,0004.12,0002.66
2021-10-12 00:34:00,,0815.9,5.00,0.00,29.8,28.2,00.0,38.9,31.5,11.4,0000.0,0017.54,0004.11,0002.65
2021-10-12 00:35:00,,0815.9,5.00,0.00,29.8,28.4,00.0,38.9,31.5,11.4,0000.0,0018.17,0004.11,0002.64
2021-10-12 00:36:00,,0815.9,5.01,0.00,29.8,28.5,00.0,38.9,31.6,11.5,0000.0,0020.04,0004.12,0002.64
2021-10-12 00:37:00,,0815.9,4.99,0.00,29.8,28.6,00.0,38.9,31.6,11.5,0000.0,0020.35,0004.10,0002.63
2021-10-12 00:38:00,,0815.9,5.00,0.00,29.8,28.7,00.0,38.9,31.6,11.6,0000.0,0019.76,0004.08,0002.63
2021-10-12 00:39:00,,0815.9,5.01,0.00,29.9,28.8,00.0,38.9,31.7,11.6,0000.0,0020.34,0004.07,0002.62
2021-10-12 00:40:00,,0815.9,4.99,0.00,29.9,28.9,00.0,38.9,31.7,11.6,0000.0,0020.41,0004.04,0002.63
2021-10-12 00:41:00,,0815.9,5.00,0.00,29.9,28.9,00.0,38.9,31.7,11.6,0000.0,0019.82,0004.04,0002.65
2021-10-12 00:42:00,,0815.9,5.01,0.00,29.9,29.0,00.0,38.9,31.8,11.6,0000.0,0019.80,0004.02,0002.68
2021-10-12 00:43:00,,0815.9,4.98,0.00,30.0,29.0,00.0,39.0,31.7,11.5,0000.0,0019.56,0004.04,0002.71
2021-10-12 00:44:00,,0815.9,5.00,0.00,30.0,29.1,00.0,39.0,31.8,11.5,0000.0,0020.05,0004.05,0002.72
2021-10-12 00:45:00,,0815.9,4.99,0.00,30.0,29.1,00.0,39.0,31.8,11.5,0000.0,0018.74,0004.05,0002.73
2021-10-12 00:46:00,,0815.9,5.00,0.00,30.0,29.1,00.0,39.0,31.8,11.5,0000.0,0017.08,0004.08,0002.75
2021-10-12 00:47:00,,0815.9,5.01,0.00,30.0,29.2,00.0,39.0,31.8,11.5,0000.0,0015.92,0004.08,0002.78
2021-10-12 00:48:00,,0815.9,4.99,0.00,30.0,29.2,00.0,39.0,31.8,11.4,0000.0,0015.51,0004.10,0002.81
2021-10-12 00:49:00,,0816.0,5.00,0.00,30.0,29.2,00.0,39.0,31.8,11.4,0000.0,0014.61,0004.08,0002.82
2021-10-12 00:50:00,,0816.0,5.00,0.00,30.1,29.2,00.0,39.1,31.8,11.5,0000.0,0014.09,0004.06,0002.82
2021-10-12 00:51:00,,0816.1,4.99,0.00,30.1,29.3,00.0,39.1,31.9,11.5,0000.0,0014.59,0004.09,0002.83
2021-10-12 00:52:00,,0816.0,5.00,0.00,30.1,29.3,00.0,39.1,31.9,11.5,0000.0,0014.30,0004.14,0002.83
2021-10-12 00:53:00,,0816.0,5.00,0.00,30.1,29.3,00.0,39.1,31.9,11.4,0000.0,0014.13,0004.13,0002.83
2021-10-12 00:54:00,,0816.0,4.99,0.00,30.1,29.3,00.0,39.1,31.9,11.4,0000.0,0014.55,0004.12,0002.82
2021-10-12 00:55:00,,0816.1,5.01,0.00,30.1,29.3,00.0,39.2,31.9,11.5,0000.0,0015.52,0004.15,0002.84
2021-10-12 00:56:00,,0816.1,4.99,0.00,30.1,29.3,00.0,39.2,31.9,11.4,0000.0,0015.47,0004.17,0002.85
2021-10-12 00:57:00,,0816.1,5.01,0.00,30.1,29.2,00.0,39.2,31.9,11.5,0000.0,0016.99,0004.16,0002.85
2021-10-12 00:58:00,,0816.1,4.99,0.00,30.0,27.1,00.0,39.1,31.3,11.5,0000.0,0016.57,0004.14,0002.86
2021-10-12 00:59:00,,0816.1,5.00,0.00,29.8,26.1,00.0,39.1,31.0,11.6,0000.0,0016.86,0004.12,0002.85
